DMSP 5D-2 F13 DEB, 42272

Orbit data source: Space-Track

DMSP 5D-2 F13 DEB, 42272 is space debris in SSO originally from a launch on Fri, 24 Mar 1995 UTC launched from the Air Force Western Test Range (AFWTR). Debris objects in space refer to the collection of defunct objects orbiting the Earth. Examples of debris include non-operational satellites, rocket bodies, and fragments generated from explosions, collisions, or faulty payload assembly.

Loading next visibility...
Identifier
42272, 1995-015GN
Orbit
SSO
Country
Flag of USUS
Related business
Manufacturer
Unknown
Mission
Spacecraft
Bus & Motor
Unknown
Mass
Unknown
Launch date (UTC)
1995-03-24 (31 years ago)
Launch vehicle
Unknown
Launch site
Air Force Western Test Range (AFWTR)
Object type
Payload
Rocket body
Debris
Shape & HBR
Unknown shape, 0.1 m
Radar Cross Section
Small (<0.1 m²)

Expand to show TLE details & history
Last TLE update: 2 days ago

TLE from 2 days ago
0 DMSP 5D-2 F13 DEB
1 42272U 95015GN  25300.50616167  .00005379  00000-0  20151-2 0  9994
2 42272  98.8838 320.4387 0023513 160.2844 199.9253 14.31981825534360
Epoch: 2025-10-27T12:08Z
TLE epoch observation values (Epoch: 2025-10-27T12:08:52.368Z)
Latitude
0.00002°
Longitude
102.11347°
Altitude
803.882 km
Speed
7.443 km/s
True Right ascension
21h 21m 45s
True Declination
0° 00' 00"
Sunlit
Object was in daylight at epoch
Visualization orbit readout
Latitude
Unknown
Longitude
Unknown
Altitude
Unknown
Speed
Unknown
Apparent Right ascension
Unknown
Apparent Declination
Unknown
Sunlit
N/A
Visualization observer readout
Local Sidereal Time
00:05:12
Azimuth
Unknown
Elevation
Unknown
Doppler factor
Unknown
Orbital elements
Apogee altitude
799.101 km
Perigee altitude
765.429 km
Semi-major axis
7,160.402 km
Eccentricity
0.00235
Inclination
98.8838°
RAAN
320.4387°
Arg. of periapsis
160.2844°
True anomaly
199.83373°
Mean anomaly
199.9253°
Eccentric anomaly
199.87949°
Mean motion
3.58209 °/min
Orbital period
100.5 mins
BSTAR
0.0020151

Documentation

Showing up to 5 results
|